Terminal Aerodrome Forecast
Issued by NWS Amarillo, TX

Home | Current Version | Previous Version | Text Only | Print | Product List | Glossary On
Versions: 1 2 3 4 5 6 7 8 9 10 11 12 13 14 15 16 17 18 19
000
FTUS44 KAMA 280400 AAB
TAFAMA
TAF AMD
KAMA 280404Z 2804/2824 15018KT P6SM VCTS SCT040CB BKN100
      TEMPO 2804/2808 VRB25G35KT 3SM TSRA BR OVC030CB
     FM281000 15015KT P6SM VCSH SCT004 BKN010
     FM281600 18016G24KT 6SM -TSRA BKN020CB=

USA.gov is the U.S. government's official web portal to all federal, state and local government web resources and services.